Location: ???????
(55.4362°N, 38.1183°E)
Time: 16:47:37
(UTC+00:00)

Cosmos 2333 Rocket - Pass Details

Date: 28 October 2021
Orbit: 837 x 865 km, 70.8° (Epoch: 04 December)

Event Time Altitude Azimuth Distance (km) Brightness Sun altitude
Rises 19:22:17 0° 272° (W) 3,417 5.8 -42.9°
Reaches altitude 10° 19:25:18 10° 288° (WNW) 2,488 5.1 -43.2°
Enters shadow 19:26:43 15° 300° (WNW) 2,140 4.7 -43.3°
